Tracking 26544 objects as of 9-Dec-2022
HD Live streaming from Space Station
objects crossing your sky now

STARLINK-5225

Track STARLINK-5225 now!
10-day predictions
STARLINK-5225 is classified as:


NORAD ID: 54063
Int'l Code: 2022-136N
Perigee: 545.7 km
Apogee: 548.0 km
Inclination: 53.2 °
Period: 95.4 minutes
Semi major axis: 6917 km
RCS: Unknown
Launch date: October 20, 2022
Source: United States (US)
Launch site: AIR FORCE EASTERN TEST RANGE (AFETR)
aabbcc
Your satellite tracking list
Your tracking list is empty




NASA's NSSDC Master Catalog

Two Line Element Set (TLE):
1 54063U 22136N   22343.00001157 -.00083511  00000-0 -52875-2 0  9999
2 54063  53.2165 271.3025 0001665  46.9430   6.4980 15.08860174  8179
Source of the keplerian elements: AFSPC